Temperature
10 9 8 9 10 10 10 10 9 10 11 11 10 9 10 10 10 10 10 10 9 9 9 8 9 9 9 9 9 9 9 9 9 9 9 9 9 9 10 10 10 10 10 11
10 9 10 10 10 10 10 9 9 10 11 10 9 9 10 10 10 9 9 9 9 9 8 8 8 8 8 8 8 8 9 9 9 9 9 9 9 9 9 9 9 9 10 10
9 9 10 10 10 9 9 9 9 9 9 10 9 9 9 10 9 9 9 9 8 8 8 8 8 8 8 8 8 8 8 8 8 8 8 8 8 8 9 9 9 9 9 9
9 9 10 9 9 9 9 10 9 9 8 8 9 8 9 9 9 9 8 8 8 8 8 7 7 7 7 7 7 7 7 7 8 8 8 8 8 8 8 8 8 8 9 9
8 8 8 8 9 9 9 9 9 9 8 8 9 8 8 9 8 8 8 8 7 7 7 7 7 7 7 7 7 7 7 7 7 7 7 7 7 7 7 7 7 8 8 8
8 8 8 8 9 9 9 9 9 9 8 7 8 8 8 8 8 8 8 8 7 7 7 7 7 7 7 7 6 6 6 7 7 7 7 7 7 7 7 7 7 7 8 8
8 8 8 8 8 8 8 7 7 7 7 7 9 9 7 8 8 8 8 7 7 7 6 6 6 6 6 6 6 6 6 6 6 6 6 6 6 6 6 7 7 7 7 7
7 7 7 7 7 7 7 7 6 7 7 8 8 8 8 8 8 8 8 7 7 6 6 6 6 6 6 6 6 5 6 6 6 6 6 6 6 6 6 6 6 6 7 7
6 6 7 7 7 7 7 7 7 7 7 7 7 8 8 8 7 8 7 7 6 6 6 6 5 5 6 6 6 5 5 5 5 5 5 5 5 5 5 6 6 6 6 6
6 5 6 7 7 7 7 7 6 6 6 7 7 8 7 6 6 7 6 6 6 5 5 5 5 5 5 5 5 5 5 5 5 5 5 5 5 5 5 5 5 5 6 6
6 5 6 6 5 6 6 6 6 6 7 6 6 6 7 6 6 6 6 6 5 5 4 4 4 5 5 5 5 5 5 5 5 5 5 5 5 5 5 5 5 5 5 5
6 5 4 6 6 6 6 6 5 5 5 6 5 5 7 6 6 5 5 5 5 4 4 4 4 4 4 4 4 4 4 4 4 4 4 4 4 4 4 4 4 5 5 5
5 4 4 5 5 5 5 5 5 5 5 5 5 5 6 5 5 5 5 4 4 4 4 3 3 4 4 4 4 4 4 4 4 4 4 4 4 4 4 4 4 4 4 4
5 3 3 4 5 4 4 4 5 5 4 5 5 5 5 5 4 4 4 4 3 3 3 3 3 3 3 3 4 4 4 4 4 4 4 4 4 4 4 3 3 3 4 4
4 3 3 3 4 4 4 4 5 4 5 5 5 5 5 4 4 4 4 3 3 3 2 2 2 2 3 3 3 3 3 3 3 3 3 3 3 3 3 3 3 3 3 3
3 3 3 3 4 4 4 4 4 4 5 5 5 4 4 4 4 4 3 3 2 2 2 2 2 2 2 2 3 3 3 3 3 3 3 3 3 3 3 2 2 2 2 3
2 2 3 3 4 4 3 3 3 4 4 4 4 4 4 3 3 3 2 2 2 1 1 1 1 1 2 2 2 2 3 3 2 2 2 2 2 2 2 2 2 2 2 2
2 2 2 3 3 2 4 4 4 3 3 3 3 3 3 3 2 2 2 1 1 1 1 1 1 1 1 1 2 2 2 2 2 2 2 2 2 2 1 1 1 1 1 1
2 2 2 2 3 3 4 3 3 3 3 3 3 3 2 2 2 1 1 1 0 0 0 0 0 1 1 1 1 1 2 1 1 1 1 1 1 1 1 1 1 1 1 1
2 1 1 2 2 3 4 3 3 3 2 3 3 2 2 1 0 0 1 0 0 -0 -0 -0 -0 0 0 1 1 1 1 1 1 1 1 1 1 1 1 1 0 0 0 0
0 1 1 1 2 2 2 2 3 2 2 3 2 2 1 0 0 1 0 0 -0 -1 -1 -1 -0 -0 -0 -0 0 0 0 0 0 0 0 0 0 0 0 0 -0 -0 -0 -0
0 0 1 1 1 2 1 1 1 1 2 2 2 2 1 0 0 -0 -0 -1 -1 -1 -1 -1 -1 -1 -1 -1 -0 -0 -0 -0 -0 -0 -0 -0 -0 -0 -0 -0 -0 -0 -1 -1
1 1 1 1 1 2 2 2 2 2 2 1 1 1 0 -0 -1 -1 -1 -1 -1 -1 -1 -1 -1 -1 -1 -1 -1 -1 -1 -1 -1 -1 -1 -1 -1 -1 -1 -1 -1 -1 -1 -1
1 1 1 0 1 2 2 2 2 1 1 1 0 0 -0 -1 -1 -1 -2 -2 -2 -2 -2 -2 -2 -2 -1 -1 -1 -1 -1 -1 -1 -1 -1 -1 -1 -1 -2 -2 -2 -2 -2 -2
1 -0 -0 -0 0 1 1 1 1 1 0 0 -0 -0 -1 -1 -2 -2 -2 -2 -2 -2 -2 -2 -2 -2 -2 -2 -2 -2 -2 -2 -2 -2 -2 -2 -2 -2 -2 -2 -2 -2 -2 -2
1 -0 -0 0 1 1 1 1 1 -0 -0 -0 -1 -1 -1 -2 -2 -2 -2 -2 -2 -2 -2 -3 -3 -3 -3 -2 -2 -2 -2 -2 -2 -3 -3 -3 -3 -3 -3 -3 -3 -3 -3 -3
Wind_Speed
1 0 1 2 3 4 3 3 5 5 4 3 2 2 2 1 1 2 2 2 3 2 3 3 4 4 4 4 4 4 3 3 3 2 1 2 2 2 2 4 5 5 5 5
0 1 3 3 3 4 3 4 4 3 3 3 1 1 1 1 1 0 1 2 2 3 2 2 4 3 3 3 3 3 3 3 3 2 1 1 1 2 2 3 4 5 5 5
2 2 3 3 3 3 4 3 4 4 5 2 1 2 1 2 3 2 1 1 1 3 2 1 3 3 3 3 3 3 2 3 2 3 2 2 3 3 3 3 2 4 5 4
2 3 3 2 3 4 3 3 4 4 3 2 1 1 1 2 2 2 2 1 1 2 2 2 2 3 2 2 3 3 3 3 2 3 3 3 3 2 1 1 1 2 4 4
2 4 3 3 4 5 3 5 6 6 3 1 2 2 2 2 1 1 1 2 2 2 2 2 2 2 2 2 3 2 2 3 3 3 3 3 2 2 2 2 2 2 3 3
1 1 3 4 5 3 4 4 4 3 1 1 3 2 1 1 1 0 1 2 1 2 2 2 2 3 2 3 3 2 2 2 2 3 3 3 3 2 2 2 2 1 1 2
2 1 2 3 3 2 3 2 1 1 1 2 1 1 1 1 2 2 2 2 1 1 1 2 2 2 2 2 2 2 2 2 2 2 2 2 2 2 2 1 1 1 1 1
2 2 2 3 3 2 3 1 0 1 1 2 1 2 1 2 3 3 3 3 2 2 1 1 1 1 1 2 2 1 2 2 2 2 2 2 1 1 1 1 0 0 0 0
2 2 3 2 3 3 2 1 2 2 2 1 3 2 1 4 5 4 4 4 3 2 2 1 1 1 1 1 1 2 2 2 2 2 1 2 1 1 1 1 1 1 1 1
3 2 3 2 2 2 3 2 1 1 1 1 2 1 1 1 2 3 3 3 3 3 3 3 2 1 0 1 1 2 2 2 2 2 1 1 1 1 1 1 1 1 1 1
2 1 3 1 1 2 1 1 2 2 2 1 2 1 3 2 2 3 3 3 3 3 3 3 3 2 1 1 2 2 2 2 2 2 1 1 1 1 1 0 1 1 1 1
2 1 2 2 1 2 1 1 0 1 3 2 1 2 1 3 3 4 4 4 4 3 3 2 2 2 2 1 1 1 2 2 1 1 1 1 1 1 1 1 1 1 1 1
1 0 1 2 1 1 2 2 2 2 2 3 2 3 1 2 3 3 3 4 4 4 3 3 3 2 2 1 1 1 1 1 1 1 1 1 1 1 1 1 1 1 1 2
2 1 3 4 4 2 3 4 4 2 2 3 4 5 4 3 3 3 3 3 3 3 3 3 3 3 2 1 1 1 1 1 1 1 1 1 0 0 1 1 1 2 1 1
1 2 4 7 7 5 5 6 6 6 5 4 4 5 5 3 2 3 3 3 4 4 4 3 3 3 3 2 1 1 1 1 1 1 1 0 0 0 1 1 1 2 2 2
1 2 3 6 6 5 6 7 7 7 6 5 5 6 4 2 3 3 3 3 4 4 4 4 4 4 4 3 2 1 1 1 1 0 0 0 1 1 1 1 1 2 2 2
1 2 2 4 3 4 6 6 6 4 4 4 6 5 2 3 3 3 3 3 3 4 4 4 4 4 4 3 2 0 1 1 1 1 1 0 0 1 1 2 2 2 2 2
3 2 2 2 2 5 5 1 3 5 5 4 3 3 2 3 4 2 2 3 3 4 4 4 3 4 3 2 2 1 1 1 0 0 1 1 1 1 1 1 2 2 2 2
3 3 2 2 4 6 3 1 1 2 5 3 3 3 3 4 4 2 3 4 3 3 3 3 3 3 3 2 2 1 1 1 1 1 1 1 1 1 1 2 2 2 2 2
1 2 2 3 4 5 3 1 1 1 4 2 1 2 2 2 3 4 4 4 4 4 3 2 3 3 3 3 1 1 1 1 1 1 2 1 1 1 1 2 2 2 2 2
1 2 4 5 5 5 1 1 2 2 5 2 1 2 1 2 3 3 3 3 2 3 3 3 3 3 3 3 2 2 2 1 2 1 2 2 1 1 1 1 1 2 2 1
4 4 4 4 5 6 2 3 3 4 1 1 1 1 1 2 2 3 2 2 2 2 3 3 3 3 3 3 2 2 2 2 2 1 2 2 2 1 1 1 1 1 1 1
6 5 4 5 6 3 3 3 2 0 1 2 2 1 0 1 2 2 2 2 2 2 2 2 2 2 3 3 2 2 2 2 2 1 2 2 2 1 1 1 1 1 1 1
4 3 3 5 6 4 4 3 2 1 2 2 2 1 1 2 2 2 2 2 2 1 2 2 2 2 3 3 2 2 2 2 2 1 2 2 2 2 2 1 1 1 1 1
4 4 4 6 5 4 5 4 3 2 2 2 2 2 2 2 2 2 2 2 2 1 1 1 1 2 2 2 2 2 2 2 2 2 2 2 2 2 2 2 1 1 1 2
5 6 6 7 5 4 4 3 2 3 3 3 2 3 2 2 3 2 2 2 1 1 1 2 2 2 2 3 2 2 2 2 2 2 2 2 2 2 2 2 3 3 3 4
Wind_Direction
186 310 308 300 285 291 288 273 276 286 300 304 238 254 292 20 237 235 204 166 141 134 93 88 89 96 108 103 106 107 92 66 63 60 66 74 55 55 57 52 48 50 55 49
292 317 310 301 301 296 298 281 286 305 346 323 253 264 259 216 208 231 173 143 125 117 105 101 101 100 105 108 109 108 104 93 79 68 55 109 101 82 70 55 51 49 55 53
359 334 317 310 332 322 285 279 297 318 330 276 231 276 145 113 89 51 20 102 114 128 138 114 125 123 106 108 104 94 98 92 79 71 70 74 63 56 53 51 48 47 56 53
358 352 334 338 328 317 283 311 303 286 309 280 301 279 255 133 83 37 6 34 47 102 119 109 100 111 117 111 103 96 91 82 73 83 91 92 89 80 48 59 57 42 58 54
352 354 354 344 327 318 298 311 288 267 268 303 262 226 267 131 80 10 22 47 37 63 92 86 81 109 104 105 104 106 101 87 76 75 92 98 87 63 63 64 62 48 49 52
297 350 0 340 325 308 313 307 284 260 228 259 231 205 273 145 199 230 90 74 48 47 73 75 58 80 83 98 99 105 110 94 84 75 80 87 88 74 76 71 60 42 45 39
352 40 21 348 339 338 345 11 6 344 228 238 176 177 246 130 92 101 122 109 84 64 67 74 66 73 75 98 98 109 119 107 94 80 69 65 79 99 103 87 73 52 31 18
336 331 19 2 349 315 295 341 198 264 247 302 342 231 182 84 83 93 105 104 86 71 75 74 79 89 87 106 118 120 118 104 94 90 77 64 50 70 73 57 36 25 331 318
339 315 337 349 331 337 322 296 297 288 269 244 230 180 86 53 57 58 69 71 60 43 36 59 82 94 106 103 122 139 133 108 99 99 105 95 74 48 41 12 18 20 359 351
334 303 306 333 318 331 317 329 333 299 290 251 236 216 266 3 19 44 50 49 39 34 24 23 33 39 79 116 126 123 116 111 100 98 101 78 65 62 52 40 15 349 328 341
321 271 293 317 317 305 334 337 301 280 275 255 249 275 0 23 360 13 29 34 23 21 13 8 6 17 33 74 104 126 125 108 108 114 90 71 51 14 8 27 336 310 315 323
346 311 278 278 278 295 278 270 285 258 291 288 266 266 22 49 29 18 12 17 16 15 4 11 9 16 34 67 73 106 134 127 115 120 98 79 52 20 7 353 331 325 318 318
353 96 308 300 282 317 314 294 285 278 276 275 254 247 332 25 15 15 10 12 11 8 6 10 14 14 19 59 66 95 106 114 105 108 106 86 46 26 351 336 323 311 303 311
325 210 217 239 269 279 275 273 265 258 258 270 248 249 277 318 345 5 14 11 2 358 2 7 3 358 357 14 40 68 72 92 96 105 107 107 118 348 318 317 315 306 299 298
277 247 253 273 281 279 274 266 255 250 261 262 266 260 271 305 341 355 8 1 3 0 359 4 356 351 355 5 28 52 60 61 84 109 119 120 9 13 337 326 325 323 316 309
320 253 277 276 265 265 283 276 256 256 263 266 271 279 297 355 6 354 354 359 352 348 348 352 355 351 350 350 356 23 37 36 28 92 158 98 39 14 346 323 317 317 312 308
223 229 265 272 289 295 269 243 228 237 243 248 258 268 312 340 339 328 336 352 343 338 341 347 348 346 340 337 342 3 60 38 7 4 6 33 358 328 328 332 332 311 302 303
204 235 246 275 314 255 245 233 202 220 247 260 280 295 306 325 325 334 12 12 347 338 339 337 338 337 333 340 351 18 57 85 329 329 323 327 324 316 318 318 311 310 310 301
219 214 241 248 260 265 256 219 153 214 264 248 260 300 335 356 342 326 10 18 354 342 339 331 329 325 333 347 354 20 35 41 18 327 322 319 323 325 318 311 308 313 319 308
249 219 228 243 260 258 262 115 68 95 270 269 258 281 314 352 310 290 341 5 357 346 346 348 350 349 351 348 3 31 34 31 338 319 317 319 313 292 288 294 307 315 320 311
215 226 226 241 249 261 237 138 99 176 255 305 267 247 248 260 265 300 347 359 355 347 356 3 1 357 343 346 19 36 30 352 330 337 330 326 319 302 296 306 314 318 321 322
195 201 209 214 232 251 149 142 196 230 311 338 316 281 255 291 317 340 352 344 351 359 0 3 4 355 351 1 24 22 350 335 347 348 329 324 328 333 339 325 324 322 323 319
211 204 207 211 226 256 184 212 237 308 292 306 318 329 207 273 288 314 326 328 345 360 347 353 358 352 354 2 11 354 330 341 351 349 331 327 331 336 333 327 324 321 320 311
225 205 234 257 253 250 244 243 265 306 288 303 320 310 272 264 272 291 304 313 324 337 333 336 345 348 344 350 355 343 340 345 353 346 331 334 343 342 350 353 340 329 325 320
229 197 234 254 257 261 242 228 242 266 274 287 302 284 261 255 257 256 277 290 299 319 321 324 319 320 324 341 352 354 358 2 356 348 340 342 349 342 342 338 333 324 307 289
206 202 212 236 229 223 246 223 212 232 249 255 265 271 266 250 249 252 267 277 293 302 317 329 325 324 329 343 349 353 0 360 353 343 341 340 338 334 334 333 340 332 311 308
Height
1495 1497 1497 1495 1494 1493 1492 1493 1493 1489 1486 1488 1489 1489 1488 1487 1488 1488 1488 1489 1490 1491 1492 1493 1494 1495 1496 1497 1498 1499 1500 1501 1501 1502 1502 1502 1503 1504 1505 1506 1507 1508 1509 1509
1495 1497 1495 1493 1492 1492 1493 1494 1492 1488 1486 1489 1489 1489 1487 1487 1488 1488 1489 1489 1489 1490 1492 1492 1493 1494 1495 1496 1497 1497 1498 1499 1500 1500 1500 1501 1502 1503 1504 1505 1506 1507 1508 1508
1497 1497 1493 1492 1493 1493 1492 1494 1493 1492 1489 1487 1488 1489 1486 1486 1487 1488 1488 1488 1489 1490 1491 1492 1492 1493 1494 1495 1496 1497 1497 1498 1498 1499 1500 1500 1501 1502 1503 1504 1504 1506 1507 1508
1496 1496 1495 1494 1494 1495 1495 1492 1491 1491 1493 1494 1489 1496 1488 1487 1487 1488 1488 1489 1489 1490 1491 1491 1492 1492 1494 1495 1495 1496 1496 1497 1497 1498 1499 1498 1499 1501 1502 1502 1503 1504 1505 1506
1499 1497 1497 1497 1496 1495 1495 1492 1491 1490 1492 1495 1491 1495 1491 1487 1489 1489 1489 1490 1490 1490 1491 1491 1492 1492 1493 1494 1494 1495 1495 1496 1496 1497 1497 1498 1498 1500 1500 1501 1502 1503 1504 1505
1500 1499 1499 1499 1497 1495 1494 1492 1490 1489 1492 1500 1491 1493 1493 1489 1488 1488 1489 1489 1490 1491 1491 1491 1492 1492 1492 1493 1493 1494 1494 1495 1496 1496 1496 1497 1497 1498 1499 1499 1500 1501 1502 1503
1501 1500 1500 1499 1498 1497 1496 1500 1502 1501 1500 1497 1486 1490 1494 1487 1486 1487 1488 1489 1490 1491 1491 1491 1491 1491 1491 1491 1492 1492 1493 1494 1494 1494 1495 1495 1496 1497 1498 1498 1499 1500 1500 1501
1505 1505 1502 1502 1502 1502 1499 1500 1508 1507 1502 1495 1490 1494 1492 1487 1486 1487 1488 1489 1490 1490 1490 1490 1490 1490 1490 1491 1491 1491 1492 1492 1492 1493 1493 1494 1496 1496 1496 1497 1498 1498 1499 1499
1508 1507 1503 1502 1502 1502 1501 1502 1500 1504 1500 1502 1495 1490 1490 1487 1487 1487 1488 1489 1489 1490 1489 1489 1489 1489 1489 1489 1490 1491 1491 1491 1491 1492 1493 1493 1494 1495 1495 1496 1496 1497 1498 1498
1509 1512 1505 1503 1502 1502 1502 1501 1504 1505 1505 1502 1495 1491 1494 1492 1490 1489 1489 1489 1490 1490 1489 1489 1489 1488 1488 1488 1489 1489 1490 1490 1490 1491 1491 1492 1493 1494 1494 1494 1494 1495 1496 1496
1510 1513 1509 1505 1506 1505 1504 1505 1504 1502 1500 1502 1502 1502 1491 1491 1491 1490 1490 1490 1490 1489 1489 1488 1488 1487 1487 1487 1487 1488 1488 1489 1489 1490 1490 1490 1492 1492 1492 1493 1493 1493 1493 1494
1510 1512 1512 1507 1505 1503 1503 1504 1506 1510 1506 1500 1504 1506 1492 1492 1492 1492 1491 1491 1490 1489 1489 1488 1487 1486 1486 1485 1486 1486 1486 1487 1487 1488 1488 1489 1490 1490 1490 1490 1491 1491 1491 1491
1512 1515 1516 1510 1510 1507 1505 1504 1505 1506 1506 1503 1504 1504 1492 1492 1492 1492 1492 1491 1490 1489 1488 1487 1486 1485 1484 1484 1484 1484 1485 1485 1486 1486 1487 1487 1487 1488 1488 1488 1488 1489 1488 1489
1511 1516 1517 1513 1507 1508 1508 1505 1504 1505 1507 1502 1498 1498 1494 1493 1493 1492 1491 1491 1490 1489 1488 1486 1485 1484 1484 1483 1483 1483 1483 1484 1484 1485 1485 1485 1486 1486 1486 1486 1486 1486 1486 1486
1512 1515 1513 1509 1505 1504 1504 1503 1502 1502 1500 1500 1496 1494 1492 1492 1492 1492 1491 1490 1489 1488 1487 1486 1485 1484 1483 1482 1482 1482 1482 1482 1483 1483 1483 1483 1484 1484 1484 1484 1484 1484 1484 1484
1511 1514 1512 1509 1504 1503 1504 1501 1499 1499 1497 1496 1494 1494 1491 1491 1491 1491 1490 1489 1489 1487 1486 1485 1484 1483 1482 1481 1481 1480 1480 1480 1481 1481 1481 1481 1481 1482 1482 1482 1482 1482 1481 1481
1512 1513 1512 1508 1503 1503 1503 1497 1497 1496 1494 1494 1494 1492 1490 1490 1489 1489 1488 1488 1487 1486 1485 1484 1483 1482 1481 1480 1479 1479 1479 1479 1479 1479 1479 1479 1480 1479 1479 1479 1479 1479 1479 1478
1511 1512 1512 1509 1508 1509 1496 1490 1490 1492 1492 1492 1490 1489 1488 1489 1489 1488 1487 1486 1486 1485 1484 1482 1481 1480 1479 1479 1478 1477 1477 1477 1477 1477 1477 1477 1477 1477 1477 1477 1477 1476 1476 1476
1507 1510 1510 1509 1506 1499 1493 1490 1490 1492 1491 1489 1488 1488 1488 1488 1487 1487 1486 1485 1485 1484 1482 1481 1480 1479 1478 1477 1476 1476 1475 1475 1475 1475 1475 1475 1475 1475 1475 1475 1475 1474 1474 1473
1507 1508 1511 1507 1505 1500 1491 1489 1488 1491 1492 1486 1486 1486 1487 1487 1488 1486 1484 1483 1482 1482 1480 1479 1478 1477 1476 1475 1475 1474 1474 1473 1473 1473 1473 1473 1473 1473 1473 1473 1472 1472 1472 1471
1510 1510 1510 1507 1504 1496 1490 1489 1489 1495 1490 1485 1484 1484 1485 1486 1486 1484 1482 1481 1480 1479 1478 1477 1476 1475 1474 1474 1473 1472 1472 1472 1472 1471 1471 1471 1471 1471 1471 1470 1470 1470 1469 1468
1506 1507 1506 1503 1502 1497 1489 1489 1490 1488 1484 1483 1483 1483 1483 1483 1482 1481 1480 1479 1478 1477 1476 1475 1474 1473 1473 1472 1472 1471 1470 1470 1470 1469 1469 1469 1469 1468 1468 1468 1468 1467 1467 1466
1498 1497 1497 1497 1494 1487 1485 1484 1484 1483 1483 1482 1481 1481 1481 1480 1479 1479 1478 1477 1476 1475 1474 1474 1473 1472 1471 1471 1470 1469 1469 1468 1468 1467 1467 1467 1466 1466 1466 1465 1465 1465 1464 1464
1492 1491 1491 1490 1485 1484 1483 1482 1482 1482 1481 1480 1480 1479 1478 1478 1477 1476 1476 1475 1474 1474 1473 1472 1471 1470 1469 1469 1469 1468 1467 1467 1466 1465 1465 1464 1464 1463 1463 1463 1463 1462 1462 1461
1486 1488 1488 1486 1482 1480 1479 1479 1479 1478 1478 1478 1477 1476 1475 1475 1474 1474 1473 1472 1472 1471 1470 1470 1469 1468 1467 1467 1466 1466 1466 1465 1464 1463 1463 1462 1462 1461 1461 1461 1460 1460 1460 1460
1480 1482 1483 1479 1476 1476 1475 1475 1475 1475 1474 1474 1473 1473 1472 1472 1471 1471 1470 1470 1469 1469 1468 1467 1467 1466 1465 1465 1464 1464 1464 1463 1462 1461 1461 1460 1460 1459 1459 1458 1458 1458 1458 1457